• Processing (Info)

  • MPEC 2014-W127: 2014 WT362

    The following Minor Planet Electronic Circular may be linked-to from your own Web pages, but must not otherwise be redistributed electronically.

    A form allowing access to any MPEC is at the bottom of this page.


    Read MPEC 2014-W126 Read MPEC 2014-W128


    M.P.E.C. 2014-W127                               Issued 2014 Nov. 27, 14:47 UT
    
         The Minor Planet Electronic Circulars contain information on unusual
             minor planets and routine data on comets.  They are published
       on behalf of Commission 20 of the International Astronomical Union by the
              Minor Planet Center, Smithsonian Astrophysical Observatory,
                              Cambridge, MA 02138, U.S.A.
    
                 Prepared using the Tamkin Foundation Computer Network
    
                                  MPC@CFA.HARVARD.EDU
                URL https://www.minorplanetcenter.net/    ISSN 1523-6714
    
                                      2014 WT362
    
    Observations:
         K14Wa2T* C2014 11 25.36341 02 37 22.439-13 18 27.31         21.0 wLEW127F51
         K14Wa2T  C2014 11 25.37593 02 37 29.098-13 17 54.67         21.0 wLEW127F51
         K14Wa2T  C2014 11 25.38845 02 37 35.770-13 17 22.01         21.3 wLEW127F51
         K14Wa2T  C2014 11 25.40094 02 37 42.395-13 16 49.52         21.0 wLEW127F51
         K14Wa2T _C2014 11 26.23501002 45 42.189-12 39 57.10         20.2 RtEW127568
         K14Wa2T _C2014 11 26.23677402 45 43.146-12 39 52.46         20.4 RtEW127568
         K14Wa2T _C2014 11 26.23802802 45 43.831-12 39 49.20         20.5 RtEW127568
         K14Wa2T  C2014 11 27.23956802 55 06.71 -11 53 57.3          20.0 RtEW127H01
         K14Wa2T  C2014 11 27.25062702 55 12.60 -11 53 26.0          19.8 RtEW127H01
         K14Wa2T  C2014 11 27.26077802 55 17.97 -11 52 57.1          20.0 RtEW127H01
         K14Wa2T  C2014 11 27.27101902 55 23.43 -11 52 27.6          20.1 RtEW127H01
    
    Observer details:
    568 Mauna Kea.  Observers R. J. Wainscoat, A. Draginda.  Measurers M. Micheli,
        R. J. Wainscoat.  3.6-m Canada-France-Hawaii Telescope + CCD.
    F51 Pan-STARRS 1, Haleakala.  Observers B. Gibson, T. Goggia, N. Primak,
        A. Schultz, M. Willman.  Measurers K. Chambers, S. Chastel, L. Denneau,
        H. Flewelling, M. Huber, E. Magnier, E. Schunova, R. Wainscoat, C. Waters,
        R. Weryk.  1.8-m Ritchey-Chretien + CCD.
    H01 Magdalena Ridge Observatory, Socorro.  Observer W. H. Ryan.  2.4-m f/8.9
        reflector + CCD.
    
    Orbital elements:
    2014 WT362                                               Earth MOID = 0.0807 AU
    Epoch 2014 Dec. 9.0 TT = JDT 2457000.5                  MPC
    M   4.75157              (2000.0)            P               Q
    n   0.24317038     Peri.  253.93364     +0.59072753     -0.80674485
    a   2.5421174      Node   159.83753     +0.75521777     +0.54659682
    e   0.5834044      Incl.    2.37334     +0.28405475     +0.22448756
    P   4.05           H   24.3           G   0.15           U   7
    Residuals in seconds of arc
    141125 F51  0.1-  0.3-    141126 568  0.0   0.1-    141127 H01  0.2+  0.1-
    141125 F51  0.0   0.0     141126 568  0.0   0.0     141127 H01  0.2-  0.1-
    141125 F51  0.2+  0.2+    141126 568  0.0   0.1-    141127 H01  0.1-  0.2+
    141125 F51  0.1-  0.2+    141127 H01  0.1+  0.0
    
    Ephemeris:
    2014 WT362               a,e,i = 2.54, 0.58, 2                   q = 1.0590
    Date    TT    R. A. (2000) Decl.     Delta      r     Elong.  Phase     V
    2014 10 28    23 34 15.3 -17 25 19   0.1473  1.0967   131.4    42.8    22.0
    ...
    2014 11 12    00 44 15.5 -18 33 43   0.1098  1.0633   129.6    45.9    21.4
    ...
    2014 11 20    01 47 33.0 -16 27 08   0.09768 1.0590   134.5    41.7    21.0
    ...
    2014 11 26    02 43 23.9 -12 49 47   0.09500 1.0623   140.7    36.0    20.8
    2014 11 27    02 52 51.0 -12 04 09   0.09521 1.0634   141.9    35.0    20.8
    2014 11 28    03 02 14.3 -11 16 25   0.09561 1.0646   143.0    33.9    20.7
    ...
    2014 12 04    03 55 16.6 -06 04 38   0.1022  1.0751   149.7    27.5    20.7
    ...
    2014 12 12    04 51 32.1 +00 37 12   0.1211  1.0970   156.9    20.6    20.9
    ...
    2014 12 27    05 53 49.1 +09 28 57   0.1817  1.1597   164.6    13.0    21.7
    
    A. U. Tomatic                (C) Copyright 2014 MPC           M.P.E.C. 2014-W127
    

    Read MPEC 2014-W126 Read MPEC 2014-W128


    MPEC number:

    Enter an MPEC number in one of the following forms:

    • 1997-B01 (the full form)
    • J97B01 (the packed version of the full form)
    • B01 (the abbreviated form)